DL3NBY Weather Reports


time (UTC)temp
C
wind
direction
speed
KPH
gust
KPH
rain 1hr
cm
rain 24hr
cm
rain mn
cm
humidity
%
barometer
mb
20260503210106 11 0.0 0.0 0.00 0.00 0.00 93 1011.9
20260503205103 11 0.0 0.0 0.00 0.00 0.00 93 1011.7
20260503204059 12 0.0 0.0 0.00 0.00 0.00 92 1011.7
20260503200043 12 0.0 0.0 0.00 0.00 0.00 90 1011.3
20260503195040 12 0.0 0.0 0.00 0.00 0.00 89 1011.2
20260503194035 13 0.0 0.0 0.00 0.00 0.00 88 1011.2
20260503192028 13 0.0 0.0 0.00 0.00 0.00 88 1011.1
20260503191024 13 0.0 0.0 0.00 0.00 0.00 85 1011.0
20260503185018 15 0.0 0.0 0.00 0.00 0.00 82 1010.9
20260503184015 15 0.0 0.0 0.00 0.00 0.00 81 1010.9
20260503183112 15 0.0 0.0 0.00 0.00 0.00 81 1010.8
20260503181126 17 0.0 1.6 0.00 0.00 0.00 79 1010.6
20260503175059 19 0.0 0.0 0.00 0.00 0.00 77 1010.6
20260503174056 20 0.0 0.0 0.00 0.00 0.00 78 1010.6
20260503173053 20 0.0 0.0 0.00 0.00 0.00 76 1010.6
20260503172050 20 0.0 0.0 0.00 0.00 0.00 72 1010.6
20260503150104 23 270 1.6 4.8 0.00 0.00 0.00 44 1011.1
20260503140105 25 235 1.6 8.0 0.00 0.00 0.00 43 1011.4
20260503131028 26 64 3.2 8.0 0.00 0.00 0.00 39 1011.8
20260503120106 25 124 1.6 6.4 0.00 0.00 0.00 38 1012.7
20260503090109 18 243 0.0 4.8 0.00 0.00 0.00 59 1014.6
20260503081053 17 0.0 3.2 0.00 0.00 0.00 63 1014.6
20260503072037 14 0.0 3.2 0.00 0.00 0.00 75 1014.6
20260503071034 13 0.0 0.0 0.00 0.00 0.00 78 1014.6
20260503060110 10 0.0 3.2 0.00 0.00 0.00 91 1014.5
20260503055109 9 0.0 0.0 0.00 0.00 0.00 91 1014.5
20260503054104 9 0.0 1.6 0.00 0.00 0.00 90 1014.6
20260503052117 7 0.0 0.0 0.00 0.00 0.00 97 1014.6
20260503051054 7 0.0 0.0 0.00 0.00 0.00 99 1014.4
20260503045108 6 0.0 0.0 0.00 0.00 0.00 99 1014.3
20260503043041 8 0.0 0.0 0.00 0.00 0.00 99 1014.4
20260503042038 -17 0.0 0.0 0.00 0.00 0.00 1 1014.4
20260503041038 -17 0.0 0.0 0.00 0.00 0.00 1 1014.2
20260503040032 -17 0.0 0.0 0.00 0.00 0.00 1 1014.2
20260503034025 -17 0.0 0.0 0.00 0.00 0.00 1 1014.3
20260503033022 -17 0.0 0.0 0.00 0.00 0.00 1 1014.3
20260503032019 -17 0.0 0.0 0.00 0.00 0.00 1 1014.4
20260503031016 -17 0.0 0.0 0.00 0.00 0.00 1 1014.4
20260503024107 -17 0.0 0.0 0.00 0.00 0.00 1 1014.5
20260503023104 -17 0.0 0.0 0.00 0.00 0.00 1 1014.6
20260503021117 -17 0.0 0.0 0.00 0.00 0.00 1 1014.7
20260503020055 -17 0.0 0.0 0.00 0.00 0.00 1 1014.7
20260503015051 -17 0.0 0.0 0.00 0.00 0.00 1 1014.7
20260503014048 -17 0.0 0.0 0.00 0.00 0.00 1 1014.8
20260503012042 -17 0.0 0.0 0.00 0.00 0.00 1 1014.8
20260503011038 -17 0.0 0.0 0.00 0.00 0.00 1 1014.8
20260503010055 -17 0.0 0.0 0.00 0.00 0.00 1 1014.8
20260503005032 -17 0.0 0.0 0.00 0.00 0.00 1 1014.9
20260503003026 -17 0.0 0.0 0.00 0.00 0.00 1 1015.0
20260503001020 -17 0.0 0.0 0.00 0.00 0.00 1 1015.2
20260503000016 -17 0.0 0.0 0.00 0.00 0.00 1 1015.1
20260502235114 -17 0.0 0.0 0.00 0.00 0.00 1 1015.2
20260502234111 -17 0.0 0.0 0.00 0.00 0.00 1 1015.2
20260502233107 -17 0.0 0.0 0.00 0.00 0.00 1 1015.3
20260502232105 -17 0.0 0.0 0.00 0.00 0.00 1 1015.2
20260502230119 8 0.0 0.0 0.00 0.00 0.00 49 1015.3
20260502225055 12 0.0 0.0 0.00 0.00 0.00 65 1015.4
20260502224052 -17 0.0 0.0 0.00 0.00 0.00 1 1015.3
20260502223049 -17 0.0 0.0 0.00 0.00 0.00 1 1015.4
20260502222046 -17 0.0 0.0 0.00 0.00 0.00 1 1015.4
20260502221042 -17 0.0 0.0 0.00 0.00 0.00 1 1015.4
20260502220040 -17 0.0 0.0 0.00 0.00 0.00 1 1015.5
20260502215036 -17 0.0 0.0 0.00 0.00 0.00 1 1015.5
20260502213030 -17 0.0 0.0 0.00 0.00 0.00 1 1015.6
20260502212026 -17 0.0 0.0 0.00 0.00 0.00 1 1015.6
20260502211023 -17 0.0 0.0 0.00 0.00 0.00 1 1015.7